DW9231 Weather Reports


time (UTC)temp
F
wind
direction
speed
knots
gust
knots
rain 1hr
in
rain 24hr
in
rain mn
in
humidity
%
barometer
mb
20260505211518 59 164 1.7 6.1 0.00 0.02 0.02 52 1009.8
20260505210024 59 201 1.7 5.2 0.00 0.02 0.02 52 1009.7
20260505204514 58 258 1.7 5.2 0.00 0.02 0.02 57 1009.8
20260505203013 57 39 0.9 5.2 0.00 0.02 0.02 58 1010.1
20260505201512 56 353 0.9 4.3 0.00 0.02 0.02 61 1010.1
20260505200019 54 274 0.0 3.5 0.01 0.02 0.02 66 1010.3
20260505194513 53 117 0.0 4.3 0.02 0.02 0.02 71 1010.5
20260505193010 52 254 0.0 0.9 0.02 0.02 0.02 74 1010.6
20260505191508 52 211 0.9 3.5 0.02 0.02 0.02 73 1010.8
20260505190007 51 183 0.0 3.5 0.01 0.01 0.01 81 1010.8
20260505184504 52 221 1.7 5.2 0.01 0.01 0.01 75 1010.9
20260505183001 55 165 3.5 7.0 0.00 0.00 0.00 57 1010.6
20260505181601 57 144 3.5 7.8 0.00 0.00 0.00 52 1010.4
20260505180059 59 154 1.7 8.7 0.00 0.00 0.00 47 1010.4
20260505174606 59 196 3.5 7.8 0.00 0.00 0.00 46 1010.3
20260505173058 57 39 0.0 3.5 0.00 0.00 0.00 48 1010.4
20260505171604 55 218 0.0 3.5 0.00 0.00 0.00 51 1010.5
20260505170056 55 220 0.9 3.5 0.00 0.00 0.00 53 1010.8
20260505164616 53 234 0.0 3.5 0.00 0.00 0.00 55 1010.4
20260505163102 52 274 0.9 4.3 0.00 0.00 0.00 57 1010.6
20260505161610 52 239 0.9 6.1 0.00 0.00 0.00 58 1011.0
20260505153048 51 261 4.3 8.7 0.00 0.00 0.00 60 1011.3
20260505151547 51 301 1.7 7.0 0.00 0.00 0.00 64 1011.4
20260505124526 53 346 0.0 1.7 0.00 0.00 0.00 45 1010.6
20260505123023 54 6 0.0 0.0 0.00 0.00 0.00 44 1010.9
20260505121524 54 6 0.0 1.7 0.00 0.00 0.00 43 1011.0
20260505120023 54 359 0.0 0.0 0.00 0.00 0.00 43 1010.8
20260505114522 54 139 0.0 0.0 0.00 0.00 0.00 42 1010.6
20260505113020 54 139 0.0 0.9 0.00 0.00 0.00 41 1010.6
20260505111524 54 118 0.0 1.7 0.00 0.00 0.00 40 1010.5
20260505101514 55 226 0.0 0.0 0.00 0.00 0.00 37 1010.6
20260505100018 55 167 0.0 1.7 0.00 0.00 0.00 36 1010.4
20260505094516 55 353 0.0 1.7 0.00 0.00 0.00 36 1010.4
20260505093010 56 357 0.9 2.6 0.00 0.00 0.00 37 1010.4
20260505091509 56 20 0.0 1.7 0.00 0.00 0.00 36 1010.6
20260505090007 57 124 0.0 1.7 0.00 0.00 0.00 37 1011.0
20260505084506 57 104 0.0 1.7 0.00 0.00 0.00 36 1011.2
20260505083012 57 193 0.9 4.3 0.00 0.00 0.00 35 1011.6
20260505081507 57 120 1.7 4.3 0.00 0.00 0.00 35 1011.5
20260505080003 58 158 1.7 7.0 0.00 0.00 0.00 35 1011.4
20260505074502 58 232 0.9 4.3 0.00 0.00 0.00 35 1011.7
20260505073100 59 237 0.0 2.6 0.00 0.00 0.00 33 1011.5
20260505071610 59 72 0.0 4.3 0.00 0.00 0.00 32 1011.4
20260505070105 60 169 0.9 6.1 0.00 0.00 0.00 32 1011.3
20260505064556 60 165 2.6 6.1 0.00 0.00 0.00 31 1011.3
20260505063051 60 204 0.0 3.5 0.00 0.00 0.00 30 1011.0
20260505061548 61 165 0.9 7.8 0.00 0.00 0.00 29 1011.2
20260505060046 61 159 0.9 7.8 0.00 0.00 0.00 28 1011.2
20260505054553 62 167 5.2 8.7 0.00 0.00 0.00 27 1011.2
20260505053055 62 149 1.7 7.8 0.00 0.00 0.00 27 1010.9
20260505051546 62 181 2.6 6.1 0.00 0.00 0.00 27 1010.8
20260505041546 64 128 0.9 5.2 0.00 0.00 0.00 27 1010.8
20260505040045 64 178 0.0 4.3 0.00 0.00 0.00 27 1010.8
20260505034544 64 199 0.0 3.5 0.00 0.00 0.00 26 1010.8
20260505033047 64 132 0.0 4.3 0.00 0.00 0.00 26 1010.6
20260505031543 65 182 0.9 3.5 0.00 0.00 0.00 25 1010.4
20260505030041 65 193 0.9 6.1 0.00 0.00 0.00 24 1010.2
20260505024541 66 174 1.7 7.8 0.00 0.00 0.00 23 1010.0
20260505023042 66 193 1.7 7.0 0.00 0.00 0.00 23 1009.9
20260505021540 67 187 3.5 12.2 0.00 0.00 0.00 23 1009.8
20260505020040 67 202 0.9 7.8 0.00 0.00 0.00 23 1009.5
20260505014539 68 179 0.9 5.2 0.00 0.00 0.00 23 1009.4
20260505013038 68 206 1.7 4.3 0.00 0.00 0.00 22 1009.2
20260505011549 68 183 1.7 7.8 0.00 0.00 0.00 21 1009.0
20260505010040 69 212 2.6 6.1 0.00 0.00 0.00 21 1009.0
20260505004540 69 196 1.7 7.0 0.00 0.00 0.00 20 1009.1
20260505003037 69 180 1.7 7.0 0.00 0.00 0.00 19 1009.1
20260505001538 69 131 1.7 8.7 0.00 0.00 0.00 19 1009.4
20260505000037 70 158 1.7 6.1 0.00 0.00 0.00 17 1009.3
20260504234535 70 205 2.6 7.8 0.00 0.00 0.00 17 1009.3
20260504233039 70 238 3.5 10.4 0.00 0.00 0.00 17 1009.6
20260504231532 71 180 1.7 13.0 0.00 0.00 0.00 16 1009.5
20260504230032 71 214 3.5 7.8 0.00 0.00 0.00 16 1009.6
20260504224532 72 173 3.5 9.6 0.00 0.00 0.00 15 1009.6
20260504223030 72 173 5.2 13.9 0.00 0.00 0.00 14 1009.8
20260504221531 73 257 4.3 11.3 0.00 0.00 0.00 14 1009.9
20260504220028 72 195 2.6 14.8 0.00 0.00 0.00 18 1009.9
20260504214527 72 153 0.9 9.6 0.00 0.00 0.00 22 1010.2
20260504213026 71 180 1.7 13.9 0.00 0.00 0.00 22 1010.4